Notices

What's New in latest Release from April 7th, 2021:

- Updated Glossary, including Speed of Maximum Gust, and Total Hourly Precipitation

- Updated national and regional climate services offices contacts and prices information

- Addition of station inventory lists for 1981-2010, 1971-2000, and 1961-1990 Normals.

If you haven't already, please take our survey and provide feedback about our website: https://eccc.sondage-survey.ca/f/LanguageSelection.aspx?s=442ca660-fcf1-47c0-95a9-59707d6fd709

Hourly Data Report for October 08, 2017

VICTORIA UNIVERSITY CS
BRITISH COLUMBIA

48°27'25.200" N
123°18'16.600" W
60.10 m
1018598
71783
WYJ

Download Data

Hourly Data (October 2017)
Hourly Data Report for October 8, 2017
TIME
LST
Temp Definition
°C
Dew Point Definition
°C
Rel Hum Definition
%
Precip. Amount Definition
mm

Wind Dir Definition
10's deg

Wind Spd Definition
km/h
Visibility Definition
km
Stn Press Definition
kPa
Hmdx Definition


Wind Chill Definition


Weather Definition


00:00 8.6 7.2 91 0.0 26 5   100.96     LegendNANA
01:00 8.4 7.1 91 0.0 26 4   101.02     LegendNANA
02:00 8.1 6.5 90 0.0 32 2   101.10     LegendNANA
03:00 7.6 6.7 94 0.0 23 2   101.16     LegendNANA
04:00 7.1 6.3 94 0.0 31 3   101.23     LegendNANA
05:00 8.5 5.7 83 0.0 36 4   101.29     LegendNANA
06:00 8.8 5.3 79 0.0 35 3   101.43     LegendNANA
07:00 9.8 5.8 76 0.0 28 7   101.54     LegendNANA
08:00 10.7 6.4 75 0.0 33 8   101.63     LegendNANA
09:00 11.7 6.6 71 0.0 1 9   101.72     LegendNANA
10:00 12.8 7.2 69 0.0 1 11   101.80     LegendNANA
11:00 13.4 7.8 69 0.0 2 10   101.84     LegendNANA
12:00 13.3 8.0 70 0.0 3 11   101.87     LegendNANA
13:00 14.0 7.3 64 0.0 4 6   101.87     LegendNANA
14:00 14.2 6.4 60 0.0 7 6   101.83     LegendNANA
15:00 14.4 6.4 59 0.0 2 7   101.88     LegendNANA
16:00 13.4 6.9 65 0.0 5 4   101.93     LegendNANA
17:00 11.5 7.2 75 0.0 22 4   101.91     LegendNANA
18:00 9.1 7.0 87 0.0 25 2   101.93     LegendNANA
19:00 8.2 6.8 91 0.0 25 2   101.93     LegendNANA
20:00 7.9 6.6 92 0.0 25 3   101.96     LegendNANA
21:00 7.8 5.8 88 0.0 23 4   101.97     LegendNANA
22:00 6.8 5.4 91 0.0 25 3   101.98     LegendNANA
23:00 6.4 5.3 92 0.0 21 2   101.98     LegendNANA

Notes on Data Quality.

Legend

  • E = Estimated
  • M = Missing
  • NA = Not Available*
  • [empty] = Indicates an unobserved value
Date modified: